User: anonymous   Login
Location: Unspecified
(0.0000°N, 0.0000°E)
Time: 20:01:02
(UTC+00:00)
Language:

UFO 10 - Orbit

View from above orbital plane
View from above orbital plane
View from above satellite
View from above satellite

Ground track
Ground track

The orbit data is extracted from the following two-line orbital elements,

1 25967U 99063A   19083.21368698 -.00000210  00000-0  00000+0 0  9993
2 25967   7.3589  36.9633 0008334   3.9676 194.2237  1.00241827 70844
Epoch (UTC): 24 March 2019 05:07:42
Eccentricity: 0.0008334
inclination: 7.3589°
perigee height: 35759 km
apogee height: 35830 km
right ascension of ascending node: 36.9633°
argument of perigee: 3.9676°
revolutions per day: 1.00241827
mean anomaly at epoch: 194.2237°
orbit number at epoch: 7084

The dashed part of the orbit path shows where the satellite is in the earth's shadow,  

DLR